User: anonymous   Login
Location: ???????
(54.9996°N, 37.9529°E)
Time: 16:12:12
(UTC+00:00)
Language:

Cosmos 2056 Rocket - Orbit

View from above orbital plane
View from above orbital plane
View from above satellite
View from above satellite

Ground track
Ground track

The orbit data is extracted from the following two-line orbital elements,

1 20433U 90004B   24176.88263931  .00000399  00000-0  14280-3 0  9994
2 20433  74.0370 326.3387 0040677 191.2053 282.3619 14.36803899803397
Epoch (UTC): 24 June 2024 21:11:00
Eccentricity: 0.0040677
inclination: 74.0370°
perigee height: 740 km
apogee height: 798 km
right ascension of ascending node: 326.3387°
argument of perigee: 191.2053°
revolutions per day: 14.36803899
mean anomaly at epoch: 282.3619°
orbit number at epoch: 80339

The dashed part of the orbit path shows where the satellite is in the earth's shadow,  

DLR